Hourly Data Report for August 01, 2021

GORE BAY CLIMATE
ONTARIO
Current Station Operator: ECCC - MSC

45°53'00.000" N
82°34'00.000" W
188.60 m
6092920
71956
TZE

Download Data

Hourly Data (August 2021)
Hourly Data Report for August 1, 2021
TIME
LST
Temp Definition
°C
Dew Point Definition
°C
Rel Hum Definition
%
Precip. Amount Definition
mm

Wind Dir Definition
10's deg

Wind Spd Definition
km/h
Visibility Definition
km
Stn Press Definition
kPa
Hmdx Definition


Wind Chill Definition


Weather Definition


00:00 15.7 14.0 89 0.0 11 2   98.86     LegendNANA
01:00 14.6 12.0 85 5.2 20 10   98.85     LegendNANA
02:00 14.5 12.5 88 1.3 25 1   98.82     LegendNANA
03:00 13.9 12.5 92 0.0 26 2   98.84     LegendNANA
04:00 15.5 14.2 92 0.0 25 7   98.85     LegendNANA
05:00 15.2 14.0 93 4.7 35 3   98.86     LegendNANA
06:00 14.6 13.2 91 3.3 6 18   98.94     LegendNANA
07:00 14.8 13.2 90 0.8 6 16   99.00     LegendNANA
08:00 15.0 13.0 88 0.0 4 21   99.05     LegendNANA
09:00 15.3 12.8 85 1.5 4 19   99.09     LegendNANA
10:00 15.2 12.8 86 0.4 4 19   99.18     LegendNANA
11:00 15.8 13.3 85 1.2 5 10   99.23     LegendNANA
12:00 17.8 13.6 76 0.0 3 14   99.26     LegendNANA
13:00 19.1 12.4 65 0.0 2 11   99.27     LegendNANA
14:00 20.5 11.5 56 0.0 1 13   99.27     LegendNANA
15:00 21.7 12.3 55 0.0 33 9   99.27     LegendNANA
16:00 22.1 10.2 47 0.0 30 11   99.29     LegendNANA
17:00 21.9 10.9 50 0.0 36 14   99.32     LegendNANA
18:00 15.8 11.9 78 0.8 35 19   99.41     LegendNANA
19:00 17.0 12.7 76 0.9 32 9   99.40     LegendNANA
20:00 16.4 12.2 76 0.0 33 10   99.45     LegendNANA
21:00 16.4 13.2 82 0.0 33 11   99.51     LegendNANA
22:00 16.8 13.6 81 0.0 32 11   99.53     LegendNANA
23:00 16.6 14.0 85 0.0 32 9   99.53     LegendNANA

Notes on Data Quality.

Legend

  • E = Estimated
  • M = Missing
  • NA = Not Available*
  • [empty] = Indicates an unobserved value
Date modified: